CAPE
0 0 0 0 0 0 0 0 0 8 38 2 0 69 66 133 479 202 556 889 1578 1635 1336 1523 1588 1298 1199 1205 1155 1050 1032 1153 1278 1336 1209 1114 1098 983 782 833 844 577 465 420 381 400 348 266 300
0 0 0 0 0 0 0 0 0 0 0 19 2 0 27 5 218 540 708 1257 1372 1266 1353 1428 1627 1329 1104 1110 1016 1001 1004 1047 1145 1232 1259 1182 1074 803 738 940 951 660 583 564 624 726 715 610 466
0 0 0 0 0 0 0 0 0 0 0 30 2 0 20 4 503 563 753 1306 1416 1331 1397 1331 1632 1370 1064 897 923 993 1019 944 1011 1127 1130 1029 997 867 882 1015 1046 704 695 844 907 915 735 430 346
0 0 0 0 0 0 0 0 0 6 18 54 1 82 167 346 712 808 1090 1417 1279 1372 1345 1662 1596 1407 1084 929 891 967 1031 1036 1024 932 871 820 656 773 972 968 1003 994 872 909 1059 982 443 400 311
0 0 0 0 0 0 0 0 0 0 4 34 133 121 62 948 1210 1153 1341 1164 1124 1124 1348 1490 1527 1462 1111 922 848 1064 1228 1310 1180 1029 815 702 707 720 810 820 743 734 679 709 913 852 462 302 345
0 0 0 0 0 0 0 0 0 0 0 5 6 37 0 1093 1253 1319 1228 1036 899 956 1244 1285 1357 1494 1217 1027 1073 1070 1208 1434 1414 1243 1081 844 707 722 689 749 692 635 593 591 616 535 447 393 377
0 0 0 0 0 0 0 0 0 0 0 0 0 0 195 1060 1162 1216 1052 952 933 955 1122 1166 984 1190 1359 1122 1005 1036 1119 1354 1409 1288 1128 906 699 700 677 753 762 753 767 687 612 569 423 340 323
0 0 0 0 0 0 0 0 0 0 0 0 0 0 51 693 1121 1094 1099 1002 996 988 1162 1171 1002 974 1073 984 1065 1023 1100 1252 1225 1112 974 705 644 589 537 373 471 492 519 503 544 581 575 444 336
0 0 0 0 0 0 0 0 0 0 0 43 6 511 522 937 1143 1197 1115 906 901 918 964 1042 830 882 865 811 774 998 834 990 1043 912 865 445 145 251 272 202 221 429 426 493 504 513 468 453 454
0 0 0 0 0 0 0 0 0 0 0 1080 340 554 735 1167 1147 1153 1112 1006 788 749 1016 1526 841 652 547 700 771 612 496 628 482 451 471 174 122 132 180 277 456 448 595 666 607 558 581 486 61
0 0 0 0 0 0 0 0 0 0 0 844 610 679 928 1041 976 1119 1257 1080 485 548 910 914 646 464 548 540 697 526 539 451 257 229 248 128 86 97 159 55 36 52 52 121 82 20 14 0 0
0 0 0 0 0 0 0 0 0 0 0 319 425 577 831 881 936 1170 1165 716 504 480 481 659 898 395 447 511 571 372 411 309 162 122 130 123 76 24 11 19 17 31 85 99 89 72 58 45 2
0 0 0 0 0 0 0 0 0 0 0 313 439 617 705 837 998 972 791 483 383 398 449 500 684 474 496 540 341 196 333 239 107 64 84 100 47 18 1 0 33 118 195 188 171 160 115 64 38
0 0 0 0 0 0 0 0 0 0 0 51 54 329 770 1010 1100 938 543 334 470 443 291 244 368 428 680 377 152 175 243 244 211 104 41 88 88 33 0 0 16 157 323 436 372 276 176 134 148
0 0 0 0 0 0 0 0 0 0 0 0 5 610 822 1042 1066 810 220 76 226 313 619 1010 576 778 648 447 250 186 182 217 214 149 46 14 162 220 0 0 327 516 475 645 443 380 359 473 263
0 0 0 0 0 0 0 0 0 0 0 0 0 358 677 897 875 781 287 303 486 615 328 441 458 578 491 356 207 153 114 127 108 276 449 559 628 676 695 679 672 762 873 960 1046 1015 912 715 395
0 0 0 0 0 0 0 0 0 0 0 0 0 41 650 773 986 849 392 420 552 733 756 384 190 295 200 92 47 242 33 216 368 523 514 586 720 795 886 922 953 1002 1129 1283 1367 903 771 558 371
0 0 0 0 0 0 0 0 0 0 0 0 0 271 827 825 975 962 590 526 563 818 755 721 450 243 135 209 396 359 416 329 603 948 896 904 1005 1147 994 800 1261 1222 1322 1449 1191 870 749 419 306
0 0 0 0 0 0 0 0 0 0 0 0 500 800 922 1001 912 1004 672 628 726 877 928 914 784 431 240 209 325 504 531 417 596 860 990 1035 924 948 931 1272 1317 1523 1372 979 964 775 541 502 376
0 0 0 0 0 0 0 0 0 0 0 172 997 1095 1015 1078 994 924 863 843 889 992 1064 929 829 653 413 428 394 433 513 558 648 517 627 692 878 848 971 1078 1213 696 490 457 491 443 322 275 239
0 0 0 0 0 0 0 0 0 0 0 0 986 1159 1289 1206 1146 1159 1193 1237 1205 1192 1040 894 889 743 491 427 423 292 270 379 297 335 398 48 341 649 493 620 712 518 387 322 298 186 87 90 35
0 0 0 0 0 0 0 0 0 0 0 0 923 1024 1140 1254 1375 1425 1422 1398 1244 1227 1002 987 849 655 372 318 221 28 80 68 234 87 92 59 238 463 469 442 492 528 442 96 34 13 0 1 0
0 0 0 0 0 0 0 0 0 0 0 42 722 944 1147 1506 1446 1467 1438 1282 1323 1198 995 857 707 338 0 16 31 291 216 101 96 94 125 418 243 419 473 252 189 178 95 42 22 1 0 0 0
3 0 0 1 36 0 0 0 0 0 0 0 511 870 1228 1335 1349 1123 940 1261 1341 1261 851 318 150 81 123 176 314 302 305 21 64 203 333 412 429 247 141 66 38 35 0 0 0 0 0 0 0
0 2 0 0 0 0 0 0 0 0 0 0 151 879 954 1087 989 831 1035 1078 1345 222 444 473 360 266 506 574 634 478 139 214 261 413 326 181 44 9 0 0 0 0 0 0 0 0 0 0 0
0 0 0 0 0 0 0 0 0 0 0 0 2 791 1121 1040 732 1179 1164 1482 252 549 927 445 480 721 805 790 583 362 274 219 113 38 3 0 0 0 0 0 0 0 0 0 0 0 0 0 0
5 0 0 30 0 0 0 0 0 0 0 0 1 998 1171 1045 1203 1277 1305 868 604 730 795 781 995 1096 869 465 167 139 3 0 0 0 0 0 0 0 0 0 0 0 0 0 0 0 0 0 0
5 0 2 18 0 0 0 0 0 0 0 0 0 971 1505 1641 1538 1363 1025 739 739 1419 1501 1422 1195 823 473 188 45 0 0 0 0 0 0 0 0 0 0 0 0 0 0 0 0 0 0 0 0
25 11 3 7 21 0 0 0 0 0 0 0 0 709 1530 1749 1413 1059 979 1534 1421 1698 1514 1334 904 546 283 98 11 0 0 0 0 0 0 0 0 0 0 0 0 0 0 0 0 0 0 0 0
3 1 0 34 8 0 0 0 0 0 0 0 0 620 1423 1386 1360 1271 1310 1200 1444 1480 1238 841 456 225 202 107 0 0 0 0 0 0 0 0 0 0 0 0 0 0 0 0 0 0 0 0 0
CIN
0 0 0 0 0 0 0 0 0 -181 -217 -21 -37 -201 -131 -86 -126 -185 -410 -476 -315 -237 -187 -112 -98 -142 -156 -160 -152 -166 -176 -160 -120 -113 -133 -158 -162 -183 -207 -187 -168 -200 -208 -211 -208 -185 -173 -168 -136
0 0 0 0 0 0 0 0 0 0 0 -21 -269 -48 -270 -28 -122 -425 -441 -389 -343 -311 -227 -139 -93 -142 -170 -161 -187 -177 -192 -196 -162 -128 -140 -160 -167 -211 -211 -145 -141 -185 -177 -172 -152 -121 -108 -112 -116
0 0 0 0 0 0 0 0 0 0 0 -307 -15 0 -306 -260 -279 -423 -427 -381 -325 -273 -226 -175 -90 -136 -182 -207 -193 -182 -189 -207 -186 -156 -161 -190 -177 -169 -166 -148 -129 -174 -168 -114 -90 -75 -85 -115 -122
0 0 0 0 0 0 0 0 0 -74 -287 -231 -22 -255 -238 -222 -251 -325 -374 -298 -409 -219 -221 -108 -89 -103 -173 -202 -193 -164 -161 -170 -167 -183 -202 -214 -253 -218 -166 -159 -143 -119 -121 -97 -54 -53 -124 -119 -126
0 0 0 0 0 0 0 0 0 0 -102 -272 -270 -226 -240 -366 -356 -395 -322 -339 -441 -272 -185 -138 -87 -77 -125 -189 -201 -139 -120 -107 -121 -140 -186 -203 -202 -197 -173 -156 -170 -165 -162 -132 -71 -63 -126 -163 -150
0 0 0 0 0 0 0 0 0 0 0 -141 -174 -324 0 -410 -378 -358 -305 -372 -404 -374 -196 -158 -112 -69 -95 -145 -155 -156 -129 -86 -83 -91 -103 -137 -167 -152 -151 -132 -134 -140 -143 -130 -109 -123 -146 -157 -153
0 0 0 0 0 0 0 0 0 0 0 0 0 0 -466 -368 -357 -391 -348 -323 -340 -335 -230 -168 -171 -102 -76 -119 -162 -156 -130 -71 -55 -60 -81 -112 -149 -138 -147 -123 -101 -90 -81 -97 -109 -122 -170 -193 -179
0 0 0 0 0 0 0 0 0 0 0 0 0 0 -303 -457 -379 -396 -379 -307 -267 -309 -223 -160 -148 -129 -126 -144 -127 -139 -118 -81 -63 -75 -95 -154 -168 -179 -192 -254 -205 -180 -166 -164 -146 -146 -165 -203 -226
0 0 0 0 0 0 0 0 0 0 0 -308 -120 -285 -430 -405 -362 -393 -374 -319 -306 -288 -258 -180 -174 -130 -155 -179 -211 -150 -171 -139 -116 -135 -150 -256 -395 -334 -322 -352 -333 -230 -219 -198 -199 -202 -216 -226 -232
0 0 0 0 0 0 0 0 0 0 0 -114 -205 -327 -412 -329 -364 -262 -201 -150 -383 -354 -212 -55 -148 -211 -218 -190 -215 -262 -289 -265 -298 -318 -301 -436 -469 -438 -381 -320 -242 -241 -180 -151 -161 -192 -205 -241 -470
0 0 0 0 0 0 0 0 0 0 0 -127 -110 -338 -409 -376 -367 -188 -159 -147 -418 -419 -246 -183 -195 -243 -231 -251 -225 -288 -294 -336 -386 -411 -414 -477 -509 -495 -411 -489 -543 -495 -524 -431 -456 -380 -376 0 0
0 0 0 0 0 0 0 0 0 0 0 -53 -111 -278 -449 -413 -216 -148 -136 -154 -462 -434 -360 -231 -123 -297 -283 -241 -218 -305 -318 -359 -418 -455 -448 -456 -507 -583 -620 -605 -589 -412 -318 -302 -274 -304 -303 -304 -142
0 0 0 0 0 0 0 0 0 0 0 -33 -82 -315 -399 -333 -147 -127 -106 -244 -427 -416 -367 -298 -223 -259 -275 -234 -266 -324 -303 -339 -425 -491 -477 -453 -497 -587 -644 -107 -497 -292 -218 -217 -215 -226 -285 -299 -311
0 0 0 0 0 0 0 0 0 0 0 -19 -81 -236 -286 -200 -105 -93 -133 -503 -402 -377 -440 -459 -373 -354 -288 -363 -422 -401 -361 -329 -348 -417 -507 -521 -538 -594 -243 0 -173 -224 -168 -151 -159 -225 -216 -235 -216
0 0 0 0 0 0 0 0 0 0 0 0 -76 -312 -271 -152 -83 -71 -493 -587 -514 -492 -360 -235 -337 -266 -278 -281 -320 -368 -346 -326 -338 -386 -469 -584 -208 -170 -1 0 -123 -83 -92 -54 -100 -115 -130 -113 -161
0 0 0 0 0 0 0 0 0 0 0 0 0 -109 -235 -115 -78 -69 -412 -81 -85 -82 -64 -405 -398 -323 -323 -331 -340 -373 -379 -381 -338 -93 -33 -47 -89 -65 -30 -14 -26 -17 -9 -6 -13 -34 -64 -75 -133
0 0 0 0 0 0 0 0 0 0 0 0 0 -22 -237 -197 -55 -49 -236 -108 -89 -77 -72 -48 -466 -409 -451 -547 -468 -217 -500 -202 -50 -37 -53 -40 -16 -4 0 -3 0 -1 -14 0 -5 -57 -70 -101 -128
0 0 0 0 0 0 0 0 0 0 0 0 0 -259 -254 -295 -101 -48 -85 -222 -94 -74 -54 -53 -61 -57 -419 -449 -332 -215 -216 -168 -31 -6 -16 -8 -7 -7 -5 -7 -1 0 -7 -1 -14 -57 -69 -113 -148
0 0 0 0 0 0 0 0 0 0 0 0 -211 -128 -228 -273 -70 -50 -110 -177 -124 -81 -62 -55 -47 -47 -41 -334 -279 -287 -222 -319 -207 -62 -35 -14 -16 -38 -41 -2 0 -3 -5 -46 -60 -88 -139 -123 -84
0 0 0 0 0 0 0 0 0 0 0 -185 -67 -99 -159 -135 -81 -83 -127 -113 -83 -53 -72 -66 -67 -56 -68 -55 -152 -176 -76 -181 -227 -110 -10 -30 -25 -25 -29 -37 -26 -41 -83 -84 -50 -91 -64 -80 -59
0 0 0 0 0 0 0 0 0 0 0 0 -40 -97 -117 -92 -132 -177 -153 -106 -46 -57 -68 -78 -61 -53 -56 -21 -51 -24 -184 -150 -227 -182 -21 0 -1 -22 -52 -41 -26 -33 -64 -54 -55 -85 -70 -104 -130
0 0 0 0 0 0 0 0 0 0 0 0 -55 -77 -98 -140 -146 -165 -125 -96 -105 -101 -89 -87 -57 -63 -86 -52 -52 -191 -167 -102 -137 -103 -33 -2 0 -27 -40 -55 -36 -36 -43 -97 -116 -124 0 -26 0
0 0 0 0 0 0 0 0 0 0 0 -15 -131 -87 -115 -87 -91 -110 -116 -138 -107 -97 -133 -141 -94 -104 0 -365 -243 -53 -93 -41 -25 -16 -12 -2 -41 -53 -39 -53 -76 -58 -70 -80 -111 -16 0 0 0
-2 0 0 0 -2 0 0 0 0 0 0 0 -177 -73 -60 -59 -51 -53 -161 -117 -109 -85 -125 -136 -79 -266 -247 -27 -30 -38 -46 -74 -39 -27 -24 -17 -26 -62 -127 -158 -86 -101 0 0 0 0 0 0 0
0 -2 0 0 0 0 0 0 0 0 0 0 -26 -56 -37 -38 -19 -6 -12 -73 -42 -159 -80 -65 -64 -59 -81 -95 -60 -43 -85 -22 -65 -50 -45 -68 -152 -77 0 0 0 0 0 0 0 0 0 0 0
0 0 0 0 0 0 0 0 0 0 0 0 -4 -167 -34 -18 -14 -8 -22 -38 -102 -85 -88 -91 -79 -112 -70 -43 -28 -43 -58 -65 -84 -106 -27 0 0 0 0 0 0 0 0 0 0 0 0 0 0
-13 0 0 -18 0 0 0 0 0 0 0 0 -16 -211 -204 -243 -16 -20 -25 -86 -260 -101 -119 -115 -103 -54 -33 -48 -91 -106 -23 0 0 0 0 0 0 0 0 0 0 0 0 0 0 0 0 0 0
-30 0 -3 -5 0 0 0 0 0 0 0 0 0 -154 -135 -145 -32 -31 -141 -205 -124 -77 -73 -77 -85 -63 -71 -92 -189 0 0 0 0 0 0 0 0 0 0 0 0 0 0 0 0 0 0 0 0
-6 -2 -5 -6 -10 0 0 0 0 0 0 0 0 -173 -82 -83 -47 -61 -133 -76 -99 -51 -73 -77 -79 -96 -105 -122 -183 0 0 0 0 0 0 0 0 0 0 0 0 0 0 0 0 0 0 0 0
-26 -3 -16 -13 -20 0 0 0 0 0 0 0 0 -180 -58 -109 -100 -91 -104 -106 -60 -55 -79 -71 -101 -112 -117 -112 0 0 0 0 0 0 0 0 0 0 0 0 0 0 0 0 0 0 0 0 0
Wind_Speed
nan nan nan nan nan nan nan nan nan nan nan nan nan nan nan 20 22 20 19 18 21 18 12 7 9 13 14 15 12 9 6 8 9 11 12 13 12 13 14 14 15 16 18 19 21 23 23 22 22
nan nan nan nan nan nan nan nan nan nan nan nan nan nan nan nan 14 27 22 17 19 17 13 8 7 11 13 14 12 10 7 8 10 10 11 12 11 12 14 14 15 18 18 19 21 22 22 23 22
nan nan nan nan nan nan nan nan nan nan nan nan nan nan nan nan 23 14 25 21 24 15 12 9 10 9 10 12 11 11 7 7 8 10 11 12 13 12 13 15 16 17 18 18 19 20 20 19 19
nan nan nan nan nan nan nan nan nan nan nan nan nan nan 22 26 19 13 33 30 29 17 11 10 11 9 9 12 12 10 8 7 7 10 10 11 13 13 13 15 15 16 17 17 17 17 18 16 17
nan nan nan nan nan nan nan nan nan nan nan nan 32 28 nan 22 28 30 21 24 28 17 10 10 10 8 8 12 12 11 9 8 8 8 9 10 11 11 12 13 15 17 17 16 16 15 15 15 17
nan nan nan nan nan nan nan nan nan nan nan nan nan nan nan 22 27 17 8 18 19 16 8 11 9 7 7 10 12 11 9 8 9 10 11 11 13 13 13 13 12 14 14 14 14 14 13 11 13
nan nan nan nan nan nan nan nan nan nan nan nan nan nan 25 15 19 21 18 22 16 14 12 13 11 5 6 9 12 12 11 10 11 12 14 14 14 14 14 13 12 12 12 13 12 10 9 12 15
nan nan nan nan nan nan nan nan nan nan nan nan nan nan nan 20 19 25 24 23 20 16 14 14 13 11 10 8 11 14 13 13 13 15 15 15 16 15 13 13 12 12 12 10 10 12 14 16 18
nan nan nan nan nan nan nan nan nan nan nan nan nan 36 30 23 22 24 23 25 18 16 17 14 14 15 15 13 10 13 14 15 14 14 16 16 14 13 12 13 12 11 11 12 13 14 14 16 20
nan nan nan nan nan nan nan nan nan nan nan 37 37 43 41 21 18 15 10 12 21 14 14 12 10 12 9 11 14 14 11 13 13 13 13 13 14 14 12 10 9 9 9 10 12 15 16 18 nan
nan nan nan nan nan nan nan nan nan nan nan 38 28 26 31 34 33 19 26 24 25 16 12 11 12 10 9 13 12 12 13 13 11 13 14 15 nan nan 12 nan nan nan nan 17 nan nan nan nan nan
nan nan nan nan nan nan nan nan nan nan nan 47 46 29 21 21 21 26 28 23 20 14 13 9 6 7 13 13 12 13 13 14 14 15 14 15 nan nan nan nan nan nan nan nan nan nan nan nan nan
nan nan nan nan nan nan nan nan nan nan nan 52 50 34 27 31 21 18 27 28 22 17 15 11 12 12 15 18 15 11 14 14 13 nan nan 15 nan nan nan nan nan 20 22 23 23 24 25 nan nan
nan nan nan nan nan nan nan nan nan nan nan nan nan 25 23 29 39 25 20 27 26 24 17 14 10 14 16 17 14 14 14 14 16 16 nan nan nan nan nan nan nan 21 25 28 28 28 29 32 35
nan nan nan nan nan nan nan nan nan nan nan nan nan 38 25 36 43 26 32 nan 28 27 23 15 18 19 19 19 19 22 24 20 21 20 nan nan 23 20 nan nan 25 26 29 29 32 34 38 37 37
nan nan nan nan nan nan nan nan nan nan nan nan nan 47 36 41 35 29 34 35 34 29 24 22 19 21 26 26 25 29 31 30 26 32 31 26 22 22 25 27 28 29 31 35 38 40 42 41 41
nan nan nan nan nan nan nan nan nan nan nan nan nan nan 44 43 48 44 40 34 29 28 27 24 22 24 25 nan nan 31 nan 39 41 35 33 32 28 27 28 29 30 30 33 37 41 43 45 44 43
nan nan nan nan nan nan nan nan nan nan nan nan nan 50 51 35 45 44 44 37 31 23 29 32 28 28 30 31 35 37 41 45 44 42 37 36 35 30 30 33 34 35 39 44 45 48 47 46 44
nan nan nan nan nan nan nan nan nan nan nan nan 49 54 53 52 37 44 36 30 25 27 32 33 38 36 33 32 38 42 48 50 52 58 55 52 44 39 28 34 42 43 46 47 46 44 43 40 35
nan nan nan nan nan nan nan nan nan nan nan 51 51 50 53 53 55 47 35 31 26 28 28 31 37 35 31 34 39 38 45 47 59 69 65 56 47 32 32 32 33 37 43 44 27 38 42 47 52
nan nan nan nan nan nan nan nan nan nan nan nan 52 44 43 42 45 49 47 43 43 30 29 32 33 29 29 30 30 28 34 35 49 58 75 nan 38 40 40 36 40 47 47 54 46 50 nan nan nan
nan nan nan nan nan nan nan nan nan nan nan nan 51 46 43 39 43 42 44 37 31 29 37 30 23 24 27 32 30 nan nan nan 28 nan nan nan 31 13 25 33 33 36 39 nan nan nan nan nan nan
nan nan nan nan nan nan nan nan nan nan nan nan 46 37 39 40 37 32 27 29 24 25 25 22 23 24 nan nan nan 21 27 23 nan nan 18 20 29 29 36 37 41 42 nan nan nan nan nan nan nan
nan nan nan nan nan nan nan nan nan nan nan nan 46 35 31 31 30 31 37 29 27 23 20 22 23 nan 22 24 26 21 33 nan nan 37 23 25 29 32 36 nan nan nan nan nan nan nan nan nan nan
nan nan nan nan nan nan nan nan nan nan nan nan 48 43 34 32 33 34 32 27 22 19 21 23 25 27 28 29 33 36 37 35 35 29 27 30 nan nan nan nan nan nan nan nan nan nan nan nan nan
nan nan nan nan nan nan nan nan nan nan nan nan nan 48 43 43 41 37 29 25 24 23 23 29 28 30 30 31 31 29 36 30 31 nan nan nan nan nan nan nan nan nan nan nan nan nan nan nan nan
nan nan nan nan nan nan nan nan nan nan nan nan nan 54 49 49 43 33 29 28 26 24 22 28 32 29 29 31 27 27 nan nan nan nan nan nan nan nan nan nan nan nan nan nan nan nan nan nan nan
nan nan nan nan nan nan nan nan nan nan nan nan nan 54 58 51 45 36 32 33 31 26 26 29 34 32 33 30 nan nan nan nan nan nan nan nan nan nan nan nan nan nan nan nan nan nan nan nan nan
nan nan nan nan nan nan nan nan nan nan nan nan nan 57 55 48 41 32 34 34 35 28 28 30 35 38 30 nan nan nan nan nan nan nan nan nan nan nan nan nan nan nan nan nan nan nan nan nan nan
nan nan nan nan nan nan nan nan nan nan nan nan nan 57 53 48 42 39 38 41 39 29 32 33 34 33 30 27 nan nan nan nan nan nan nan nan nan nan nan nan nan nan nan nan nan nan nan nan nan
Wind_Direction
nan nan nan nan nan nan nan nan nan nan nan nan nan nan nan 193 206 197 203 230 249 252 255 253 299 293 300 302 286 267 280 297 316 331 338 339 339 335 329 325 329 335 336 337 338 335 336 337 340
nan nan nan nan nan nan nan nan nan nan nan nan nan nan nan nan 209 211 222 239 251 252 249 239 283 290 299 303 289 275 286 306 321 334 333 332 331 326 317 316 325 331 333 335 336 333 334 338 342
nan nan nan nan nan nan nan nan nan nan nan nan nan nan nan nan 216 259 229 258 247 244 248 250 277 283 298 298 286 282 289 301 317 324 325 326 320 313 310 315 324 328 328 332 331 331 329 333 337
nan nan nan nan nan nan nan nan nan nan nan nan nan nan 215 232 226 243 287 269 248 228 239 263 270 274 293 296 288 281 281 287 304 315 315 313 312 311 310 312 318 322 323 324 325 328 324 331 340
nan nan nan nan nan nan nan nan nan nan nan nan 233 235 nan 225 247 271 302 228 247 224 217 243 262 269 280 291 288 281 283 288 296 297 292 287 291 293 296 306 313 319 320 320 320 323 329 335 337
nan nan nan nan nan nan nan nan nan nan nan nan nan nan nan 241 258 245 205 231 237 251 229 220 258 256 261 277 280 280 275 275 275 275 270 270 272 279 283 290 299 305 312 319 326 332 335 328 327
nan nan nan nan nan nan nan nan nan nan nan nan nan nan 232 235 250 212 208 225 234 252 241 215 206 235 281 280 282 280 273 257 255 257 262 265 271 274 284 295 299 307 311 321 324 318 322 328 328
nan nan nan nan nan nan nan nan nan nan nan nan nan nan nan 203 204 200 203 232 217 236 229 225 198 189 207 224 281 283 280 269 256 257 264 272 275 281 292 298 302 311 320 318 316 325 328 327 327
nan nan nan nan nan nan nan nan nan nan nan nan nan 221 230 256 211 215 222 214 231 230 224 217 203 189 200 208 240 267 286 277 273 273 274 270 268 280 291 302 313 320 329 328 319 318 324 324 328
nan nan nan nan nan nan nan nan nan nan nan 220 222 225 243 241 206 234 239 240 236 244 234 212 211 208 208 214 231 244 255 253 254 264 270 269 279 283 292 300 312 309 309 309 311 313 314 318 nan
nan nan nan nan nan nan nan nan nan nan nan 219 212 216 244 246 242 240 229 213 214 237 225 226 208 213 222 225 235 242 244 250 248 258 262 270 nan nan 277 nan nan nan nan 297 nan nan nan nan nan
nan nan nan nan nan nan nan nan nan nan nan 206 212 199 217 250 254 243 228 217 232 230 222 226 231 236 236 235 241 258 252 244 244 252 263 264 nan nan nan nan nan nan nan nan nan nan nan nan nan
nan nan nan nan nan nan nan nan nan nan nan 202 205 228 232 227 205 191 210 207 213 227 226 232 239 233 241 243 238 238 237 245 250 nan nan 258 nan nan nan nan nan 285 286 295 298 303 314 nan nan
nan nan nan nan nan nan nan nan nan nan nan nan nan 209 212 224 228 218 213 226 219 224 226 232 240 245 257 250 253 240 236 252 246 241 nan nan nan nan nan nan nan 280 288 296 299 307 308 308 309
nan nan nan nan nan nan nan nan nan nan nan nan nan 210 216 233 225 203 211 nan 223 220 229 246 241 237 246 239 232 234 240 245 241 242 nan nan 244 252 nan nan 274 283 288 292 298 299 299 303 305
nan nan nan nan nan nan nan nan nan nan nan nan nan 213 208 214 231 218 215 219 217 223 228 226 242 247 246 248 248 247 245 243 240 243 242 249 259 272 267 271 283 287 293 297 293 293 299 300 299
nan nan nan nan nan nan nan nan nan nan nan nan nan nan 222 225 227 233 227 223 231 231 233 234 247 254 260 nan nan 262 nan 261 251 243 247 251 257 259 269 274 277 282 285 287 288 290 295 299 298
nan nan nan nan nan nan nan nan nan nan nan nan nan 219 224 231 229 228 227 231 237 234 244 255 260 260 257 257 267 268 261 256 255 249 245 248 253 260 267 271 273 274 283 287 289 296 298 298 293
nan nan nan nan nan nan nan nan nan nan nan nan 211 224 223 223 217 230 228 227 227 233 259 269 276 268 265 261 253 254 260 253 252 245 242 244 240 247 254 265 271 278 284 287 287 289 287 284 305
nan nan nan nan nan nan nan nan nan nan nan 205 221 225 228 226 234 231 232 234 240 260 275 276 271 272 261 262 260 261 261 269 271 255 246 251 244 238 250 253 270 281 284 280 279 286 301 302 309
nan nan nan nan nan nan nan nan nan nan nan nan 211 222 233 244 244 241 246 249 259 258 254 264 260 268 269 275 264 255 253 258 256 264 255 nan 239 244 251 266 278 276 284 280 297 304 nan nan nan
nan nan nan nan nan nan nan nan nan nan nan nan 213 217 221 225 229 245 250 252 249 237 254 256 262 257 252 256 256 nan nan nan 258 nan nan nan 266 324 295 293 294 296 300 nan nan nan nan nan nan
nan nan nan nan nan nan nan nan nan nan nan nan 212 216 222 230 237 238 237 234 241 246 252 254 249 247 nan nan nan 263 260 235 nan nan 298 302 320 305 300 300 299 298 nan nan nan nan nan nan nan
nan nan nan nan nan nan nan nan nan nan nan nan 213 211 218 221 227 230 230 238 240 236 247 254 259 nan 267 267 276 259 281 nan nan 322 319 320 308 303 299 nan nan nan nan nan nan nan nan nan nan
nan nan nan nan nan nan nan nan nan nan nan nan 225 215 216 224 226 231 239 246 237 242 241 253 258 260 261 258 262 272 273 281 301 313 314 300 nan nan nan nan nan nan nan nan nan nan nan nan nan
nan nan nan nan nan nan nan nan nan nan nan nan nan 228 216 218 219 231 235 235 234 234 243 255 260 260 258 259 261 272 282 290 295 nan nan nan nan nan nan nan nan nan nan nan nan nan nan nan nan
nan nan nan nan nan nan nan nan nan nan nan nan nan 224 229 228 231 234 237 238 239 239 242 258 261 255 254 261 268 279 nan nan nan nan nan nan nan nan nan nan nan nan nan nan nan nan nan nan nan
nan nan nan nan nan nan nan nan nan nan nan nan nan 225 224 226 233 236 236 243 244 245 249 252 262 258 253 259 nan nan nan nan nan nan nan nan nan nan nan nan nan nan nan nan nan nan nan nan nan
nan nan nan nan nan nan nan nan nan nan nan nan nan 224 230 232 234 234 237 245 250 249 249 252 255 257 256 nan nan nan nan nan nan nan nan nan nan nan nan nan nan nan nan nan nan nan nan nan nan
nan nan nan nan nan nan nan nan nan nan nan nan nan 227 232 237 238 242 246 253 254 254 251 250 248 256 261 267 nan nan nan nan nan nan nan nan nan nan nan nan nan nan nan nan nan nan nan nan nan